Location: Pisa
(43.7170°N, 10.3830°E)
Time: 08:13:26
(UTC+02:00)

ISS - Pass Details

Date: 14 May 2021
Orbit: 417 x 422 km, 51.6° (Epoch: 23 June)

Event Time Altitude Azimuth Distance (km) Brightness Sun altitude
Exits shadow 01:17:59 22° 4° (N) 985 -1.2 -27.7°
Drops below altitude 10° 01:20:17 10° 46° (NE) 1,508 -0.4 -27.6°
Sets 01:22:41 0° 62° (ENE) 2,375 0.5 -27.6°
